Location: La Fredeussais
(48.1780°N, 1.3980°W)
Time: 05:47:43
(UTC+00:00)

UNISAT 6 - Visible Passes

Search period start: 18 October 2021 00:00
Search period end: 28 October 2021 00:00
Orbit: 607 x 687 km, 97.7° (Epoch: 17 October)

Date Brightness Start Highest point End Pass type
(mag) Time Alt. Az. Time Alt. Az. Time Alt. Az.
18 Oct ? 05:05:35 10° ESE 05:09:25 26° ENE 05:13:16 10° N visible
18 Oct ? 18:29:09 10° NNE 18:33:12 31° E 18:37:08 10° SSE visible
18 Oct ? 20:05:50 10° N 20:09:51 32° WNW 20:13:46 10° SW visible
19 Oct ? 05:30:27 10° SE 05:34:51 42° ENE 05:39:16 10° N visible
19 Oct ? 18:54:29 10° NNE 18:58:57 55° E 19:03:16 10° S visible
19 Oct ? 20:32:00 10° NNW 20:35:13 19° WNW 20:38:23 10° WSW visible
20 Oct ? 04:23:07 10° ENE 04:24:32 11° NE 04:25:58 10° NE visible
20 Oct ? 05:55:43 10° SSE 06:00:23 72° ENE 06:05:04 10° N visible
20 Oct ? 17:45:35 10° ENE 17:47:15 12° E 17:48:54 10° ESE visible
20 Oct ? 19:20:03 10° NNE 19:24:35 83° WNW 19:28:59 10° SSW visible
20 Oct ? 20:58:48 10° NNW 21:00:29 12° NW 21:02:10 10° WNW visible
21 Oct ? 04:46:39 10° ESE 04:49:49 18° ENE 04:52:57 10° NNE visible
21 Oct ? 18:09:48 10° NE 18:13:11 21° E 18:16:29 10° SE visible
21 Oct ? 19:45:48 10° N 19:50:08 47° WNW 19:54:19 10° SW visible
22 Oct ? 05:11:10 10° SE 05:15:10 29° ENE 05:19:10 10° N visible
22 Oct ? 18:34:52 10° NNE 18:39:00 35° E 18:43:01 10° SSE visible
22 Oct ? 20:11:46 10° N 20:15:34 28° WNW 20:19:17 10° WSW visible
23 Oct ? 05:36:08 10° SE 05:40:37 47° ENE 05:45:06 10° N visible
23 Oct ? 19:00:16 10° NNE 19:04:43 64° E 19:09:02 10° S visible
23 Oct ? 20:38:02 10° NNW 20:40:54 17° WNW 20:43:44 10° W visible
24 Oct ? 04:28:14 10° E 04:30:14 13° ENE 04:32:14 10° NNE visible
24 Oct ? 06:01:29 10° SSE 06:06:10 82° ENE 06:10:50 10° NNW visible
24 Oct ? 17:50:53 10° ENE 17:53:05 13° E 17:55:16 10° ESE visible
24 Oct ? 19:25:52 10° N 19:30:20 72° WNW 19:34:40 10° SSW visible
24 Oct ? 21:05:28 10° NW 21:06:09 10° NW 21:06:50 10° WNW visible
25 Oct ? 04:52:08 10° ESE 04:55:32 20° ENE 04:58:53 10° NNE visible
25 Oct ? 18:15:25 10° NE 18:18:59 23° E 18:22:29 10° SE visible
25 Oct ? 19:51:40 10° N 19:55:50 40° WNW 19:59:54 10° SW visible
26 Oct ? 05:16:46 10° SE 05:20:54 32° ENE 05:25:01 10° N visible
26 Oct ? 18:40:35 10° NNE 18:44:47 40° E 18:48:52 10° SSE visible
26 Oct ? 20:17:41 10° N 20:22:30 21° W 20:24:45 10° WSW visible
27 Oct ? 05:41:50 10° SSE 05:46:23 54° ENE 05:50:54 10° N visible
27 Oct ? 19:11:34 49° S 19:11:34 49° S 19:14:47 10° S visible
27 Oct?20:49:21W20:49:21W20:43:19NNWvisible
